NKS2402 KEWR-KRDU

Flight info

Callsign NKS2402
Flight time 1h 32m
Altitude 34000
Route ELVAE NECCK WHITE Q409 VILLS NALES Q141 HOUKY TAQLE3
Aircraft A320/M-SDE3FGHIRWY/LB1

Departure

Time 2026-05-07 01:11
Airport Newark Liberty International Airport (KEWR)

Arrival

Time 2026-05-07 02:43
Airport Raleigh-Durham International Airport (KRDU)
Time Latitude Longitude Altitude Speed Heading
2026-05-07 00:41 40.68742 -74.17732 24 ft 0 kts 30°
2026-05-07 00:58 40.68741 -74.17733 22 ft 2 kts 30°
2026-05-07 00:58 40.68719 -74.17749 22 ft 4 kts 30°
2026-05-07 00:58 40.68696 -74.17766 24 ft 2 kts 30°
2026-05-07 00:59 40.68673 -74.17810 22 ft 3 kts 107°
2026-05-07 00:59 40.68678 -74.17832 26 ft 0 kts 107°
2026-05-07 01:02 40.68676 -74.17821 24 ft 2 kts 108°
2026-05-07 01:03 40.68669 -74.17795 23 ft 2 kts 108°
2026-05-07 01:03 40.68662 -74.17767 22 ft 2 kts 108°
2026-05-07 01:03 40.68662 -74.17766 22 ft 0 kts 108°
2026-05-07 01:05 40.68662 -74.17765 22 ft 0 kts 108°
2026-05-07 01:05 40.68653 -74.17731 22 ft 7 kts 108°
2026-05-07 01:06 40.68635 -74.17663 22 ft 9 kts 112°
2026-05-07 01:06 40.68605 -74.17578 22 ft 11 kts 116°
2026-05-07 01:06 40.68575 -74.17480 23 ft 12 kts 91°
2026-05-07 01:06 40.68634 -74.17409 24 ft 12 kts 26°
2026-05-07 01:07 40.68716 -74.17357 23 ft 14 kts 26°
2026-05-07 01:07 40.68808 -74.17298 22 ft 15 kts 26°
2026-05-07 01:07 40.68908 -74.17234 22 ft 17 kts 25°
2026-05-07 01:07 40.69019 -74.17164 23 ft 18 kts 25°
2026-05-07 01:08 40.69138 -74.17090 22 ft 20 kts 25°
2026-05-07 01:08 40.69267 -74.17009 22 ft 21 kts 26°
2026-05-07 01:08 40.69404 -74.16920 22 ft 23 kts 26°
2026-05-07 01:08 40.69551 -74.16825 22 ft 25 kts 26°
2026-05-07 01:09 40.69703 -74.16729 22 ft 24 kts 25°
2026-05-07 01:09 40.69844 -74.16642 21 ft 23 kts 25°
2026-05-07 01:09 40.69976 -74.16557 21 ft 15 kts 26°
2026-05-07 01:09 40.70056 -74.16499 21 ft 14 kts 47°
2026-05-07 01:10 40.70030 -74.16393 19 ft 15 kts 158°
2026-05-07 01:10 40.69909 -74.16438 19 ft 27 kts 205°
2026-05-07 01:10 40.69512 -74.16688 23 ft 97 kts 205°
2026-05-07 01:10 40.68724 -74.17189 28 ft 152 kts 206°
2026-05-07 01:11 40.67709 -74.17854 439 ft 168 kts 206°
2026-05-07 01:11 40.66575 -74.18231 1087 ft 177 kts 182°
2026-05-07 01:11 40.65308 -74.17986 1733 ft 186 kts 181°
2026-05-07 01:11 40.64049 -74.18250 2090 ft 189 kts 218°
2026-05-07 01:12 40.63025 -74.19460 2351 ft 209 kts 229°
2026-05-07 01:12 40.61822 -74.20792 2485 ft 240 kts 218°
2026-05-07 01:12 40.60348 -74.21928 2500 ft 247 kts 212°
2026-05-07 01:12 40.58822 -74.22936 2505 ft 248 kts 211°
2026-05-07 01:13 40.57419 -74.24256 2908 ft 248 kts 228°
2026-05-07 01:13 40.56115 -74.25728 3940 ft 250 kts 216°
2026-05-07 01:13 40.54461 -74.26597 4693 ft 261 kts 196°
2026-05-07 01:13 40.52623 -74.26599 4929 ft 269 kts 174°
2026-05-07 01:14 40.50854 -74.25798 4999 ft 272 kts 165°
2026-05-07 01:14 40.49083 -74.24891 5008 ft 273 kts 166°
2026-05-07 01:14 40.47297 -74.23992 5010 ft 274 kts 166°
2026-05-07 01:14 40.45512 -74.23103 5013 ft 274 kts 166°
2026-05-07 01:15 40.43746 -74.22224 5009 ft 275 kts 166°
2026-05-07 01:15 40.41950 -74.21330 5026 ft 275 kts 166°
2026-05-07 01:15 40.40156 -74.20441 5031 ft 275 kts 166°
2026-05-07 01:15 40.38361 -74.19555 5028 ft 274 kts 166°
2026-05-07 01:16 40.36578 -74.18673 5030 ft 274 kts 166°
2026-05-07 01:16 40.34787 -74.17789 5027 ft 275 kts 166°
2026-05-07 01:16 40.32969 -74.17001 5027 ft 271 kts 173°
2026-05-07 01:16 40.31151 -74.16630 5037 ft 266 kts 183°
2026-05-07 01:17 40.29318 -74.16665 5034 ft 261 kts 192°
2026-05-07 01:17 40.27539 -74.17086 5033 ft 257 kts 200°
2026-05-07 01:17 40.25764 -74.17635 5519 ft 263 kts 199°
2026-05-07 01:17 40.23978 -74.18174 6520 ft 262 kts 200°
2026-05-07 01:18 40.22197 -74.18706 7404 ft 263 kts 200°
2026-05-07 01:18 40.20396 -74.19243 8243 ft 266 kts 200°
2026-05-07 01:18 40.18608 -74.19777 9070 ft 268 kts 200°
2026-05-07 01:18 40.16778 -74.20324 9848 ft 271 kts 200°
2026-05-07 01:19 40.14903 -74.20887 10365 ft 284 kts 200°
2026-05-07 01:19 40.12897 -74.21500 10538 ft 307 kts 200°
2026-05-07 01:19 40.10747 -74.22157 10788 ft 325 kts 199°
2026-05-07 01:19 40.08519 -74.22825 11384 ft 331 kts 199°
2026-05-07 01:20 40.06998 -74.23274 11839 ft 333 kts 199°
2026-05-07 01:20 40.04726 -74.23942 12541 ft 336 kts 199°
2026-05-07 01:20 40.02441 -74.24634 13245 ft 337 kts 202°
2026-05-07 01:20 40.00277 -74.25724 13888 ft 332 kts 213°
2026-05-07 01:21 39.98338 -74.27337 14470 ft 330 kts 221°
2026-05-07 01:21 39.96484 -74.29120 15055 ft 333 kts 221°
2026-05-07 01:21 39.94607 -74.30920 15612 ft 336 kts 221°
2026-05-07 01:21 39.92715 -74.32730 16162 ft 340 kts 221°
2026-05-07 01:22 39.90794 -74.34562 16720 ft 343 kts 221°
2026-05-07 01:22 39.88858 -74.36403 17290 ft 347 kts 222°
2026-05-07 01:22 39.86899 -74.38263 17874 ft 350 kts 222°
2026-05-07 01:22 39.84919 -74.40145 18422 ft 354 kts 222°
2026-05-07 01:23 39.82928 -74.42036 18972 ft 356 kts 223°
2026-05-07 01:23 39.81037 -74.44086 19554 ft 351 kts 231°
2026-05-07 01:23 39.79330 -74.46364 20184 ft 352 kts 232°
2026-05-07 01:23 39.77619 -74.48641 20786 ft 353 kts 232°
2026-05-07 01:24 39.75900 -74.50918 21361 ft 353 kts 232°
2026-05-07 01:24 39.74173 -74.53196 21917 ft 354 kts 233°
2026-05-07 01:24 39.72444 -74.55482 22457 ft 355 kts 233°
2026-05-07 01:24 39.70713 -74.57775 22985 ft 356 kts 233°
2026-05-07 01:25 39.68977 -74.60079 23496 ft 357 kts 233°
2026-05-07 01:25 39.67237 -74.62383 23912 ft 358 kts 233°
2026-05-07 01:25 39.65460 -74.64729 24320 ft 360 kts 233°
2026-05-07 01:25 39.63728 -74.67013 24717 ft 361 kts 233°
2026-05-07 01:26 39.61963 -74.69339 25107 ft 362 kts 233°
2026-05-07 01:26 39.60169 -74.71703 25488 ft 363 kts 233°
2026-05-07 01:26 39.58394 -74.74044 25873 ft 365 kts 234°
2026-05-07 01:26 39.56635 -74.76359 26242 ft 366 kts 234°
2026-05-07 01:27 39.54825 -74.78742 26624 ft 367 kts 234°
2026-05-07 01:27 39.53027 -74.81106 26997 ft 369 kts 234°
2026-05-07 01:27 39.51155 -74.83403 27365 ft 378 kts 226°
2026-05-07 01:27 39.48754 -74.85021 27715 ft 405 kts 209°
2026-05-07 01:28 39.45875 -74.85625 28055 ft 436 kts 193°
2026-05-07 01:28 39.42770 -74.85078 28370 ft 468 kts 176°
2026-05-07 01:28 39.39666 -74.83525 28677 ft 484 kts 168°
2026-05-07 01:28 39.36571 -74.81756 28971 ft 487 kts 168°
2026-05-07 01:29 39.33470 -74.79970 29339 ft 488 kts 168°
2026-05-07 01:29 39.30379 -74.78183 29790 ft 487 kts 168°
2026-05-07 01:29 39.27292 -74.76392 30203 ft 486 kts 168°
2026-05-07 01:29 39.24210 -74.74601 30587 ft 485 kts 168°
2026-05-07 01:30 39.21139 -74.72817 30967 ft 484 kts 168°
2026-05-07 01:30 39.18074 -74.71039 31343 ft 483 kts 168°
2026-05-07 01:30 39.15010 -74.69263 31722 ft 482 kts 168°
2026-05-07 01:30 39.11949 -74.67490 31875 ft 482 kts 168°
2026-05-07 01:31 39.08889 -74.65719 31912 ft 481 kts 168°
2026-05-07 01:31 39.02748 -74.62174 31914 ft 481 kts 168°
2026-05-07 01:32 38.96650 -74.58671 31905 ft 480 kts 168°
2026-05-07 01:32 38.90542 -74.55181 31912 ft 479 kts 168°
2026-05-07 01:33 38.84447 -74.51717 31912 ft 479 kts 168°
2026-05-07 01:33 38.78326 -74.48471 31911 ft 464 kts 178°
2026-05-07 01:33 38.75229 -74.47865 31918 ft 440 kts 191°
2026-05-07 01:34 38.72258 -74.48177 31919 ft 419 kts 204°
2026-05-07 01:34 38.69550 -74.49285 31919 ft 401 kts 216°
2026-05-07 01:34 38.67191 -74.51043 31918 ft 386 kts 226°
2026-05-07 01:34 38.65235 -74.53311 31919 ft 375 kts 236°
2026-05-07 01:35 38.63716 -74.55960 31923 ft 367 kts 244°
2026-05-07 01:35 38.61030 -74.61500 31387 ft 365 kts 244°
2026-05-07 01:35 38.59679 -74.64266 30569 ft 368 kts 243°
2026-05-07 01:36 38.58314 -74.67054 29670 ft 373 kts 243°
2026-05-07 01:36 38.56930 -74.69875 28721 ft 376 kts 243°
2026-05-07 01:36 38.55543 -74.72696 28041 ft 373 kts 243°
2026-05-07 01:36 38.54169 -74.75489 27382 ft 370 kts 243°
2026-05-07 01:37 38.52803 -74.78267 26745 ft 368 kts 243°
2026-05-07 01:37 38.51430 -74.81063 26105 ft 365 kts 243°
2026-05-07 01:37 38.50106 -74.83760 25521 ft 363 kts 243°
2026-05-07 01:37 38.48769 -74.86482 24936 ft 360 kts 243°
2026-05-07 01:38 38.47425 -74.89216 24357 ft 358 kts 243°
2026-05-07 01:38 38.46100 -74.91901 24015 ft 357 kts 243°
2026-05-07 01:38 38.44771 -74.94594 23895 ft 359 kts 243°
2026-05-07 01:38 38.43441 -74.97286 23908 ft 360 kts 243°
2026-05-07 01:39 38.42107 -74.99991 23925 ft 360 kts 243°
2026-05-07 01:39 38.40773 -75.02692 23921 ft 360 kts 243°
2026-05-07 01:39 38.39437 -75.05395 23921 ft 361 kts 243°
2026-05-07 01:39 38.38099 -75.08100 23917 ft 361 kts 243°
2026-05-07 01:40 38.36759 -75.10805 23921 ft 361 kts 243°
2026-05-07 01:40 38.35421 -75.13504 23921 ft 361 kts 243°
2026-05-07 01:40 38.34080 -75.16207 23922 ft 361 kts 243°
2026-05-07 01:40 38.32741 -75.18906 23924 ft 361 kts 243°
2026-05-07 01:41 38.31401 -75.21601 23928 ft 361 kts 243°
2026-05-07 01:41 38.30057 -75.24300 23919 ft 361 kts 243°
2026-05-07 01:41 38.28713 -75.26994 23917 ft 361 kts 243°
2026-05-07 01:41 38.27368 -75.29688 23925 ft 361 kts 243°
2026-05-07 01:42 38.26023 -75.32380 23922 ft 361 kts 243°
2026-05-07 01:42 38.24675 -75.35076 23915 ft 361 kts 243°
2026-05-07 01:42 38.23333 -75.37765 23912 ft 360 kts 243°
2026-05-07 01:42 38.21988 -75.40457 23907 ft 360 kts 243°
2026-05-07 01:43 38.20645 -75.43142 23912 ft 360 kts 243°
2026-05-07 01:43 38.19300 -75.45831 23914 ft 360 kts 243°
2026-05-07 01:43 38.17940 -75.48548 23910 ft 360 kts 243°
2026-05-07 01:43 38.16611 -75.51201 23913 ft 360 kts 243°
2026-05-07 01:44 38.15262 -75.53882 23910 ft 360 kts 243°
2026-05-07 01:44 38.13896 -75.56597 23910 ft 360 kts 243°
2026-05-07 01:44 38.12547 -75.59276 23921 ft 360 kts 243°
2026-05-07 01:44 38.11200 -75.61954 23923 ft 360 kts 243°
2026-05-07 01:45 38.09847 -75.64637 23923 ft 360 kts 243°
2026-05-07 01:45 38.08497 -75.67315 23923 ft 360 kts 243°
2026-05-07 01:45 38.07148 -75.69990 23921 ft 360 kts 243°
2026-05-07 01:45 38.05796 -75.72669 23923 ft 361 kts 243°
2026-05-07 01:46 38.04441 -75.75350 23923 ft 361 kts 243°
2026-05-07 01:46 38.03088 -75.78028 23922 ft 360 kts 243°
2026-05-07 01:46 38.01738 -75.80701 23919 ft 361 kts 243°
2026-05-07 01:46 38.00380 -75.83378 23915 ft 361 kts 243°
2026-05-07 01:47 37.99020 -75.86055 23918 ft 361 kts 243°
2026-05-07 01:47 37.97665 -75.88724 23918 ft 361 kts 243°
2026-05-07 01:47 37.96303 -75.91401 23915 ft 361 kts 243°
2026-05-07 01:47 37.94942 -75.94075 23918 ft 361 kts 243°
2026-05-07 01:48 37.93582 -75.96746 23917 ft 361 kts 243°
2026-05-07 01:48 37.92224 -75.99418 23917 ft 361 kts 242°
2026-05-07 01:48 37.90866 -76.02089 23915 ft 361 kts 242°
2026-05-07 01:48 37.89507 -76.04761 23913 ft 361 kts 242°
2026-05-07 01:49 37.88148 -76.07429 23915 ft 361 kts 242°
2026-05-07 01:49 37.86784 -76.10100 23915 ft 361 kts 242°
2026-05-07 01:49 37.85419 -76.12769 23914 ft 361 kts 242°
2026-05-07 01:49 37.84054 -76.15437 23915 ft 361 kts 242°
2026-05-07 01:50 37.82665 -76.18142 23919 ft 362 kts 242°
2026-05-07 01:50 37.81313 -76.20773 23917 ft 362 kts 242°
2026-05-07 01:50 37.79925 -76.23476 23916 ft 362 kts 242°
2026-05-07 01:50 37.78556 -76.26140 23916 ft 362 kts 242°
2026-05-07 01:51 37.77647 -76.27910 23916 ft 362 kts 242°
2026-05-07 01:51 37.76275 -76.30575 23912 ft 362 kts 242°
2026-05-07 01:51 37.74906 -76.33236 23832 ft 358 kts 242°
2026-05-07 01:51 37.73560 -76.35847 23374 ft 353 kts 242°
2026-05-07 01:52 37.72224 -76.38439 22803 ft 351 kts 242°
2026-05-07 01:52 37.70901 -76.41013 22256 ft 349 kts 242°
2026-05-07 01:52 37.69585 -76.43574 21733 ft 347 kts 242°
2026-05-07 01:52 37.68271 -76.46125 21238 ft 345 kts 242°
2026-05-07 01:53 37.66963 -76.48654 20945 ft 344 kts 242°
2026-05-07 01:53 37.65648 -76.51195 20916 ft 346 kts 242°
2026-05-07 01:53 37.64329 -76.53742 20922 ft 348 kts 242°
2026-05-07 01:53 37.63004 -76.56297 20925 ft 348 kts 242°
2026-05-07 01:54 37.61679 -76.58848 20926 ft 348 kts 242°
2026-05-07 01:54 37.60355 -76.61400 20931 ft 348 kts 242°
2026-05-07 01:54 37.59030 -76.63953 20931 ft 348 kts 242°
2026-05-07 01:54 37.57705 -76.66504 20930 ft 348 kts 242°
2026-05-07 01:55 37.56360 -76.69092 20932 ft 348 kts 242°
2026-05-07 01:55 37.55029 -76.71648 20935 ft 348 kts 242°
2026-05-07 01:55 37.53699 -76.74199 20933 ft 349 kts 241°
2026-05-07 01:55 37.52364 -76.76758 20933 ft 349 kts 241°
2026-05-07 01:56 37.51030 -76.79314 20933 ft 349 kts 241°
2026-05-07 01:56 37.49694 -76.81871 20935 ft 350 kts 241°
2026-05-07 01:56 37.48359 -76.84431 20933 ft 350 kts 241°
2026-05-07 01:56 37.47022 -76.86991 20933 ft 350 kts 241°
2026-05-07 01:57 37.45681 -76.89553 20933 ft 350 kts 241°
2026-05-07 01:57 37.44343 -76.92109 20929 ft 350 kts 241°
2026-05-07 01:57 37.43002 -76.94667 20929 ft 350 kts 241°
2026-05-07 01:57 37.41662 -76.97227 20927 ft 350 kts 241°
2026-05-07 01:58 37.40319 -76.99789 20926 ft 350 kts 240°
2026-05-07 01:58 37.38976 -77.02344 20925 ft 351 kts 240°
2026-05-07 01:58 37.37628 -77.04898 20918 ft 351 kts 240°
2026-05-07 01:58 37.36278 -77.07454 20918 ft 350 kts 240°
2026-05-07 01:59 37.34900 -77.09978 20920 ft 352 kts 236°
2026-05-07 01:59 37.33229 -77.12268 20921 ft 358 kts 228°
2026-05-07 01:59 37.31250 -77.14200 20917 ft 365 kts 219°
2026-05-07 01:59 37.28964 -77.15739 20924 ft 371 kts 212°
2026-05-07 02:00 37.26645 -77.17074 20923 ft 371 kts 212°
2026-05-07 02:00 37.24267 -77.18449 20933 ft 371 kts 212°
2026-05-07 02:00 37.21926 -77.19805 20935 ft 371 kts 212°
2026-05-07 02:00 37.19581 -77.21161 20939 ft 371 kts 212°
2026-05-07 02:01 37.17237 -77.22516 20943 ft 371 kts 212°
2026-05-07 02:01 37.14951 -77.23985 20953 ft 366 kts 217°
2026-05-07 02:01 37.12754 -77.25616 20948 ft 367 kts 217°
2026-05-07 02:01 37.10553 -77.27240 20947 ft 367 kts 217°
2026-05-07 02:02 37.08352 -77.28861 20949 ft 368 kts 217°
2026-05-07 02:02 37.06143 -77.30485 20943 ft 368 kts 217°
2026-05-07 02:02 37.03937 -77.32105 20945 ft 368 kts 217°
2026-05-07 02:02 37.01730 -77.33736 20941 ft 368 kts 218°
2026-05-07 02:03 36.99531 -77.35377 20943 ft 368 kts 218°
2026-05-07 02:03 36.97329 -77.37025 20948 ft 369 kts 218°
2026-05-07 02:03 36.95135 -77.38665 20733 ft 366 kts 218°
2026-05-07 02:03 36.92953 -77.40289 20259 ft 364 kts 218°
2026-05-07 02:04 36.90865 -77.42008 19787 ft 357 kts 222°
2026-05-07 02:04 36.88858 -77.43835 19307 ft 355 kts 223°
2026-05-07 02:04 36.86906 -77.45666 19022 ft 353 kts 224°
2026-05-07 02:04 36.84939 -77.47534 18963 ft 354 kts 224°
2026-05-07 02:05 36.82978 -77.49397 18980 ft 355 kts 224°
2026-05-07 02:05 36.81007 -77.51260 18982 ft 356 kts 223°
2026-05-07 02:05 36.78999 -77.53146 18985 ft 356 kts 223°
2026-05-07 02:05 36.77022 -77.54994 18987 ft 356 kts 223°
2026-05-07 02:06 36.75059 -77.56824 18987 ft 356 kts 223°
2026-05-07 02:06 36.73048 -77.58694 18988 ft 356 kts 223°
2026-05-07 02:06 36.71063 -77.60537 18985 ft 356 kts 223°
2026-05-07 02:06 36.69074 -77.62385 18984 ft 356 kts 223°
2026-05-07 02:07 36.67086 -77.64233 18982 ft 356 kts 223°
2026-05-07 02:07 36.63113 -77.67927 18976 ft 356 kts 223°
2026-05-07 02:07 36.61128 -77.69772 18960 ft 357 kts 223°
2026-05-07 02:08 36.59139 -77.71621 18959 ft 357 kts 223°
2026-05-07 02:08 36.57150 -77.73467 18959 ft 357 kts 223°
2026-05-07 02:08 36.55159 -77.75314 18959 ft 357 kts 223°
2026-05-07 02:08 36.53171 -77.77154 18957 ft 357 kts 223°
2026-05-07 02:09 36.51177 -77.78997 18956 ft 357 kts 223°
2026-05-07 02:09 36.49185 -77.80835 18960 ft 357 kts 223°
2026-05-07 02:09 36.47190 -77.82676 18961 ft 357 kts 223°
2026-05-07 02:09 36.45199 -77.84513 18959 ft 357 kts 223°
2026-05-07 02:10 36.43202 -77.86354 18962 ft 357 kts 223°
2026-05-07 02:10 36.41206 -77.88193 18964 ft 357 kts 223°
2026-05-07 02:10 36.39214 -77.90028 18956 ft 357 kts 223°
2026-05-07 02:10 36.37216 -77.91865 18961 ft 357 kts 223°
2026-05-07 02:11 36.35197 -77.93719 18960 ft 357 kts 223°
2026-05-07 02:11 36.33204 -77.95551 18961 ft 357 kts 223°
2026-05-07 02:11 36.31211 -77.97383 18952 ft 356 kts 223°
2026-05-07 02:11 36.29224 -77.99209 18955 ft 354 kts 223°
2026-05-07 02:12 36.27285 -78.00981 18953 ft 337 kts 223°
2026-05-07 02:12 36.25440 -78.02659 18946 ft 321 kts 224°
2026-05-07 02:12 36.23688 -78.04251 18955 ft 305 kts 224°
2026-05-07 02:12 36.22172 -78.05930 18957 ft 280 kts 240°
2026-05-07 02:13 36.21313 -78.07968 18956 ft 261 kts 257°
2026-05-07 02:13 36.21063 -78.10234 18957 ft 265 kts 273°
2026-05-07 02:13 36.21403 -78.12415 18964 ft 255 kts 288°
2026-05-07 02:13 36.22261 -78.14344 18965 ft 260 kts 302°
2026-05-07 02:14 36.23605 -78.15893 18964 ft 270 kts 319°
2026-05-07 02:14 36.25362 -78.16861 18962 ft 286 kts 336°
2026-05-07 02:14 36.27412 -78.17017 18962 ft 307 kts 358°
2026-05-07 02:14 36.29501 -78.16151 18960 ft 330 kts 22°
2026-05-07 02:15 36.31257 -78.14217 18956 ft 351 kts 49°
2026-05-07 02:15 36.32433 -78.11517 18952 ft 359 kts 60°
2026-05-07 02:15 36.33487 -78.08711 18950 ft 360 kts 61°
2026-05-07 02:15 36.34522 -78.05881 18948 ft 360 kts 61°
2026-05-07 02:16 36.35551 -78.03057 18953 ft 360 kts 61°
2026-05-07 02:16 36.36584 -78.00232 18954 ft 359 kts 61°
2026-05-07 02:16 36.37619 -77.97418 18954 ft 359 kts 60°
2026-05-07 02:16 36.38657 -77.94604 18959 ft 359 kts 60°
2026-05-07 02:17 36.39708 -77.91750 18961 ft 359 kts 63°
2026-05-07 02:17 36.40261 -77.88731 18958 ft 362 kts 92°
2026-05-07 02:17 36.39711 -77.85730 18963 ft 356 kts 123°
2026-05-07 02:17 36.38198 -77.83427 18963 ft 337 kts 153°
2026-05-07 02:18 36.36153 -77.82301 18971 ft 313 kts 181°
2026-05-07 02:18 36.34057 -77.82282 18968 ft 293 kts 202°
2026-05-07 02:18 36.32220 -77.83141 18962 ft 276 kts 221°
2026-05-07 02:18 36.30808 -77.84646 18969 ft 263 kts 239°
2026-05-07 02:19 36.29914 -77.86566 18962 ft 256 kts 250°
2026-05-07 02:19 36.29170 -77.88580 18966 ft 257 kts 250°
2026-05-07 02:19 36.28425 -77.90589 18966 ft 257 kts 250°
2026-05-07 02:19 36.27677 -77.92599 18960 ft 256 kts 250°
2026-05-07 02:20 36.26928 -77.94605 18955 ft 256 kts 250°
2026-05-07 02:20 36.26182 -77.96604 18953 ft 256 kts 250°
2026-05-07 02:20 36.25434 -77.98604 18953 ft 255 kts 250°
2026-05-07 02:20 36.24689 -78.00600 18957 ft 255 kts 250°
2026-05-07 02:21 36.23946 -78.02606 18957 ft 262 kts 250°
2026-05-07 02:21 36.23186 -78.04767 18906 ft 283 kts 251°
2026-05-07 02:21 36.22390 -78.07077 18336 ft 292 kts 251°
2026-05-07 02:21 36.21867 -78.08597 18150 ft 288 kts 251°
2026-05-07 02:22 36.21084 -78.10866 17789 ft 284 kts 251°
2026-05-07 02:22 36.20310 -78.13104 17395 ft 282 kts 251°
2026-05-07 02:22 36.19538 -78.15337 16972 ft 281 kts 250°
2026-05-07 02:22 36.18768 -78.17560 16559 ft 281 kts 250°
2026-05-07 02:23 36.18001 -78.19770 16217 ft 278 kts 250°
2026-05-07 02:23 36.17238 -78.21968 15787 ft 279 kts 250°
2026-05-07 02:23 36.16474 -78.24177 15389 ft 279 kts 249°
2026-05-07 02:23 36.15711 -78.26376 15012 ft 278 kts 249°
2026-05-07 02:24 36.15001 -78.28598 14633 ft 276 kts 256°
2026-05-07 02:24 36.14568 -78.30941 14261 ft 276 kts 258°
2026-05-07 02:24 36.14163 -78.33226 13868 ft 276 kts 258°
2026-05-07 02:24 36.13742 -78.35591 13114 ft 287 kts 258°
2026-05-07 02:25 36.13088 -78.37978 12541 ft 292 kts 241°
2026-05-07 02:25 36.11695 -78.39809 12130 ft 298 kts 217°
2026-05-07 02:25 36.09744 -78.40744 11720 ft 309 kts 194°
2026-05-07 02:25 36.07568 -78.40599 11315 ft 320 kts 173°
2026-05-07 02:26 36.05431 -78.39902 11099 ft 310 kts 171°
2026-05-07 02:26 36.03396 -78.39172 10819 ft 301 kts 170°
2026-05-07 02:26 36.01421 -78.38328 10389 ft 304 kts 158°
2026-05-07 02:26 35.99781 -78.36651 9952 ft 314 kts 131°
2026-05-07 02:27 35.98813 -78.34221 9465 ft 321 kts 105°
2026-05-07 02:27 35.98713 -78.31477 9091 ft 323 kts 84°
2026-05-07 02:27 35.99030 -78.28732 8734 ft 322 kts 81°
2026-05-07 02:27 35.99396 -78.26003 8385 ft 321 kts 80°
2026-05-07 02:28 35.99826 -78.23316 8097 ft 318 kts 70°
2026-05-07 02:28 36.00911 -78.21000 8001 ft 309 kts 42°
2026-05-07 02:28 36.02637 -78.19507 8017 ft 300 kts 15°
2026-05-07 02:28 36.04631 -78.19057 8016 ft 288 kts 354°
2026-05-07 02:29 36.06631 -78.19124 8013 ft 287 kts 351°
2026-05-07 02:29 36.08628 -78.19251 8013 ft 287 kts 350°
2026-05-07 02:29 36.10621 -78.19392 8010 ft 287 kts 350°
2026-05-07 02:29 36.12619 -78.19533 8013 ft 288 kts 350°
2026-05-07 02:30 36.14620 -78.19674 8009 ft 288 kts 350°
2026-05-07 02:30 36.16616 -78.19820 8008 ft 287 kts 350°
2026-05-07 02:30 36.18609 -78.19967 8005 ft 288 kts 350°
2026-05-07 02:30 36.20641 -78.20117 8003 ft 288 kts 350°
2026-05-07 02:31 36.22574 -78.20547 7998 ft 277 kts 330°
2026-05-07 02:31 36.24083 -78.21901 7997 ft 264 kts 304°
2026-05-07 02:31 36.24939 -78.23845 7812 ft 255 kts 282°
2026-05-07 02:31 36.25071 -78.25997 7467 ft 251 kts 261°
2026-05-07 02:32 36.24491 -78.28016 7133 ft 252 kts 240°
2026-05-07 02:32 36.23332 -78.29655 6811 ft 255 kts 227°
2026-05-07 02:32 36.22058 -78.31179 6475 ft 254 kts 227°
2026-05-07 02:32 36.20791 -78.32696 6147 ft 253 kts 227°
2026-05-07 02:33 36.19527 -78.34215 5819 ft 252 kts 227°
2026-05-07 02:33 36.18283 -78.35705 5623 ft 242 kts 227°
2026-05-07 02:33 36.17116 -78.37096 5494 ft 223 kts 228°
2026-05-07 02:33 36.16043 -78.38375 5336 ft 207 kts 228°
2026-05-07 02:34 36.15024 -78.39594 5050 ft 200 kts 228°
2026-05-07 02:34 36.14032 -78.40785 5015 ft 199 kts 229°
2026-05-07 02:34 36.13078 -78.42023 5009 ft 198 kts 239°
2026-05-07 02:34 36.12481 -78.43541 5013 ft 197 kts 249°
2026-05-07 02:35 36.12004 -78.45110 4782 ft 194 kts 250°
2026-05-07 02:35 36.11549 -78.46679 4503 ft 193 kts 250°
2026-05-07 02:35 36.11100 -78.48229 4214 ft 191 kts 250°
2026-05-07 02:35 36.10651 -78.49781 3901 ft 191 kts 250°
2026-05-07 02:36 36.10217 -78.51333 3609 ft 191 kts 249°
2026-05-07 02:36 36.09534 -78.52721 3317 ft 190 kts 230°
2026-05-07 02:36 36.08613 -78.53928 3053 ft 190 kts 228°
2026-05-07 02:36 36.07683 -78.55096 3002 ft 191 kts 227°
2026-05-07 02:37 36.06741 -78.56270 3004 ft 194 kts 226°
2026-05-07 02:37 36.05784 -78.57462 3006 ft 195 kts 227°
2026-05-07 02:37 36.04832 -78.58645 3000 ft 190 kts 226°
2026-05-07 02:37 36.03936 -78.59758 2999 ft 174 kts 226°
2026-05-07 02:38 36.03111 -78.60784 3018 ft 166 kts 227°
2026-05-07 02:38 36.02308 -78.61782 2999 ft 163 kts 227°
2026-05-07 02:38 36.01509 -78.62774 3001 ft 162 kts 227°
2026-05-07 02:38 36.00715 -78.63761 3001 ft 161 kts 226°
2026-05-07 02:39 35.99929 -78.64736 3001 ft 159 kts 227°
2026-05-07 02:39 35.99145 -78.65708 2962 ft 160 kts 227°
2026-05-07 02:39 35.98360 -78.66684 2829 ft 161 kts 227°
2026-05-07 02:39 35.97570 -78.67663 2649 ft 160 kts 227°
2026-05-07 02:40 35.96786 -78.68636 2446 ft 161 kts 226°
2026-05-07 02:40 35.96002 -78.69607 2236 ft 155 kts 226°
2026-05-07 02:40 35.95275 -78.70507 2058 ft 144 kts 225°
2026-05-07 02:40 35.94585 -78.71363 1872 ft 138 kts 225°
2026-05-07 02:41 35.93914 -78.72193 1695 ft 135 kts 225°
2026-05-07 02:41 35.93250 -78.73016 1512 ft 135 kts 224°
2026-05-07 02:41 35.92591 -78.73843 1339 ft 135 kts 225°
2026-05-07 02:41 35.91930 -78.74676 1145 ft 137 kts 224°
2026-05-07 02:42 35.91252 -78.75497 957 ft 137 kts 224°
2026-05-07 02:42 35.90572 -78.76319 803 ft 137 kts 224°
2026-05-07 02:42 35.89903 -78.77156 619 ft 136 kts 225°
2026-05-07 02:42 35.89230 -78.77985 448 ft 135 kts 225°
2026-05-07 02:43 35.88657 -78.78697 418 ft 92 kts 225°
2026-05-07 02:43 35.88364 -78.79051 420 ft 32 kts 217°
2026-05-07 02:43 35.88265 -78.79049 416 ft 7 kts 144°
2026-05-07 02:43 35.88240 -78.79023 422 ft 4 kts 140°
2026-05-07 02:44 35.88216 -78.78998 426 ft 5 kts 140°
2026-05-07 02:44 35.88177 -78.78997 419 ft 7 kts 192°
2026-05-07 02:44 35.88128 -78.78987 423 ft 8 kts 140°
2026-05-07 02:44 35.88083 -78.78931 421 ft 10 kts 133°
2026-05-07 02:45 35.88030 -78.78863 422 ft 12 kts 136°
2026-05-07 02:45 35.87960 -78.78792 429 ft 14 kts 150°
2026-05-07 02:45 35.87864 -78.78747 425 ft 16 kts 158°
2026-05-07 02:45 35.87772 -78.78667 428 ft 17 kts 135°
2026-05-07 02:46 35.87693 -78.78569 429 ft 15 kts 135°
2026-05-07 02:46 35.87607 -78.78517 431 ft 15 kts 204°
2026-05-07 02:46 35.87528 -78.78609 430 ft 16 kts 225°
2026-05-07 02:46 35.87450 -78.78706 430 ft 15 kts 225°
2026-05-07 02:47 35.87382 -78.78790 426 ft 12 kts 225°
2026-05-07 02:47 35.87322 -78.78865 433 ft 11 kts 225°
2026-05-07 02:47 35.87290 -78.78936 433 ft 11 kts 275°
2026-05-07 02:47 35.87318 -78.78990 436 ft 6 kts 314°
2026-05-07 02:48 35.87335 -78.79011 429 ft 0 kts 316°
2026-05-07 02:48 35.87336 -78.79012 429 ft 0 kts 316°